Find Kosmos-763

NORAD ID: 8287 Int'l Des: 1975-086 Owner: GUKOSR Country: SU operational
LEOCIRCULAR

当前视图

正在加载3D地球...

About Kosmos-763

Kosmos-763 (NORAD 8287) is a satellite by GUKOSR of SU. It operates in LEO, CIRCULAR orbit

即将过境

Passes for default location (London). Set your location on the main map for personalized predictions.

高度历史

Loading altitude history...

两行轨道根数

1 8287U 75086C 26194.45939409 -.00000006 00000-0 68565-4 0 9997
2 8287 74.0066 195.1865 0022220 59.6757 108.1708 12.43564102307027
Epoch: Jul 13, 2026 • Age: 17 hours

当前状态

高度 1482.5 km
远地点 / 近地点 N/A
速度 7.13 km/s
星下点 6.24°N, 149°W
类型 other

Most Searched